Location: New Town
(33.2710°N, 90.7534°W)
Time: 09:07:27
(UTC+00:00)

Hubble Space Telescope - Visible Passes

Search period start: 17 April 2021 00:00
Search period end: 27 April 2021 00:00
Orbit: 535 x 539 km, 28.5° (Epoch: 16 April)

Date Brightness Start Highest point End Pass type
(mag) Time Alt. Az. Time Alt. Az. Time Alt. Az.
18 Apr 3.0 01:59:15 10° S 01:59:51 12° S 01:59:51 12° S visible
19 Apr 2.5 01:47:43 10° SSW 01:50:13 17° SSE 01:50:13 17° SSE visible
20 Apr 2.2 01:36:22 10° SSW 01:39:27 20° SSE 01:40:27 19° SE visible
21 Apr 2.1 01:25:07 10° SW 01:28:28 24° SSE 01:30:34 16° ESE visible
21 Apr 3.4 03:05:23 10° WSW 03:05:55 13° WSW 03:05:55 13° WSW visible
22 Apr 1.9 01:13:57 10° SW 01:17:29 27° SSE 01:20:35 12° ESE visible
22 Apr 2.8 02:54:25 10° WSW 02:55:55 20° WSW 02:55:55 20° WSW visible
23 Apr 1.8 01:02:51 10° SW 01:06:32 31° SSE 01:10:12 10° ESE visible
23 Apr 2.2 02:43:28 10° WSW 02:45:48 29° SW 02:45:48 29° SW visible
24 Apr 1.7 02:32:32 10° WSW 02:35:37 37° SW 02:35:37 37° SW visible
25 Apr 1.4 02:21:37 10° WSW 02:25:23 40° S 02:25:23 40° S visible
26 Apr 1.4 02:10:44 10° WSW 02:14:34 37° S 02:15:05 36° S visible
